When you browse on this site, cookies collect data to enhance your experience and personalize the content and advertising you see.
Visit our Privacy Policy to learn more. By continuing to use the site, you agree to this use of cookies and data.
  • In Czech Republic
  • List of Countries
  • For 7 days
  • Water Temperature
  • Weather Map
  • Weather Widgets
  • user-avatar
    Login

    Hourly Weather Ischgl

    Today, 30 May, Saturday

    Time Temperature Precipitation Wind Pressure Humidity
    00:00 -2°C° 0 mm 1 mps 573 mmHg 90%
    01:00 -2°C° 0 mm 1 mps 573 mmHg 89%
    02:00 -2°C° 0 mm 1 mps 573 mmHg 89%
    03:00 -2°C° 0 mm 1 mps 572 mmHg 89%
    04:00 -2°C° 0 mm 1 mps 572 mmHg 88%
    05:00 -1°C° 0 mm 1 mps 573 mmHg 83%
    06:00 +1°C° 0 mm 1 mps 574 mmHg 77%
    07:00 +3°C° 0 mm 1 mps 575 mmHg 71%
    08:00 +4°C° 0 mm 1 mps 575 mmHg 66%
    09:00 +4°C° 0 mm 2 mps 575 mmHg 61%
    10:00 +5°C° 0 mm 2 mps 575 mmHg 56%
    11:00 +5°C° 0.1 mm 2 mps 575 mmHg 57%
    12:00 +6°C° 0.1 mm 2 mps 575 mmHg 59%
    13:00 +5°C° 0.1 mm 3 mps 575 mmHg 61%
    14:00 +4°C° 0.3 mm 3 mps 575 mmHg 65%
    15:00 +4°C° 0.3 mm 3 mps 574 mmHg 69%
    16:00 +4°C° 0.3 mm 3 mps 574 mmHg 72%
    17:00 +3°C° 0.2 mm 3 mps 574 mmHg 77%
    18:00 +3°C° 0.2 mm 2 mps 573 mmHg 81%
    19:00 +2°C° 0.2 mm 2 mps 573 mmHg 85%
    20:00 +1°C° 0.1 mm 2 mps 573 mmHg 89%
    21:00 +1°C° 0.1 mm 1 mps 573 mmHg 93%
    22:00 0°C° 0.1 mm 1 mps 572 mmHg 97%
    23:00 0°C° 0 mm 1 mps 572 mmHg 96%

    Tomorrow, 31 May, Sunday

    Time Temperature Precipitation Wind Pressure Humidity
    00:00 0°C° 0 mm 1 mps 572 mmHg 96%
    01:00 0°C° 0 mm 1 mps 572 mmHg 95%
    02:00 -1°C° 0 mm 0 mps 572 mmHg 94%
    03:00 -2°C° 0 mm 0 mps 572 mmHg 94%
    04:00 -2°C° 0 mm 0 mps 572 mmHg 93%
    05:00 -1°C° 0 mm 0 mps 572 mmHg 89%
    06:00 0°C° 0 mm 0 mps 573 mmHg 85%
    07:00 +1°C° 0 mm 0 mps 573 mmHg 81%
    08:00 +4°C° 0 mm 1 mps 574 mmHg 74%
    09:00 +5°C° 0 mm 1 mps 575 mmHg 66%
    10:00 +6°C° 0 mm 2 mps 575 mmHg 59%
    11:00 +6°C° 0 mm 2 mps 575 mmHg 56%
    12:00 +7°C° 0 mm 2 mps 576 mmHg 53%
    13:00 +8°C° 0 mm 3 mps 576 mmHg 50%
    14:00 +8°C° 0 mm 3 mps 576 mmHg 53%
    15:00 +8°C° 0 mm 3 mps 576 mmHg 56%
    16:00 +7°C° 0 mm 3 mps 576 mmHg 59%
    17:00 +5°C° 0 mm 3 mps 575 mmHg 64%
    18:00 +6°C° 0 mm 2 mps 575 mmHg 69%
    19:00 +5°C° 0 mm 2 mps 575 mmHg 73%
    20:00 +3°C° 0 mm 2 mps 574 mmHg 80%
    21:00 +2°C° 0 mm 1 mps 573 mmHg 86%
    22:00 0°C° 0 mm 1 mps 573 mmHg 93%
    23:00 0°C° 0 mm 1 mps 573 mmHg 92%

    Day after tomorrow, 1 June, Monday

    Time Temperature Precipitation Wind Pressure Humidity
    00:00 0°C° 0 mm 1 mps 572 mmHg 92%
    01:00 -1°C° 0 mm 1 mps 572 mmHg 91%
    02:00 -1°C° 0 mm 1 mps 572 mmHg 89%
    03:00 -1°C° 0 mm 1 mps 572 mmHg 88%
    04:00 -1°C° 0 mm 1 mps 572 mmHg 86%
    05:00 0°C° 0 mm 0 mps 573 mmHg 77%
    06:00 +2°C° 0 mm 0 mps 574 mmHg 68%
    07:00 +4°C° 0 mm 0 mps 575 mmHg 59%
    08:00 +7°C° 0 mm 1 mps 576 mmHg 54%
    09:00 +9°C° 0 mm 1 mps 577 mmHg 50%
    10:00 +10°C° 0 mm 1 mps 578 mmHg 46%
    11:00 +11°C° 0 mm 1 mps 578 mmHg 44%
    12:00 +12°C° 0 mm 2 mps 578 mmHg 41%
    13:00 +13°C° 0 mm 2 mps 579 mmHg 39%
    14:00 +13°C° 0 mm 2 mps 578 mmHg 41%
    15:00 +12°C° 0 mm 3 mps 578 mmHg 43%
    16:00 +12°C° 0 mm 3 mps 578 mmHg 45%
    17:00 +11°C° 0.1 mm 3 mps 578 mmHg 54%
    18:00 +10°C° 0.1 mm 2 mps 577 mmHg 63%
    19:00 +8°C° 0.1 mm 2 mps 576 mmHg 73%
    20:00 +7°C° 0 mm 1 mps 576 mmHg 80%
    21:00 +5°C° 0 mm 1 mps 575 mmHg 88%
    22:00 +3°C° 0 mm 1 mps 574 mmHg 95%
    23:00 +1°C° 0 mm 0 mps 574 mmHg 95%

    2 June, Tuesday

    Time Temperature Precipitation Wind Pressure Humidity
    00:00 +1°C° 0 mm 0 mps 573 mmHg 95%
    01:00 +1°C° 0 mm 0 mps 573 mmHg 95%
    02:00 +1°C° 0 mm 0 mps 573 mmHg 95%
    03:00 0°C° 0 mm 0 mps 573 mmHg 95%
    04:00 0°C° 0 mm 0 mps 573 mmHg 94%
    05:00 +2°C° 0 mm 0 mps 574 mmHg 89%
    06:00 +4°C° 0 mm 0 mps 575 mmHg 83%
    07:00 +7°C° 0 mm 0 mps 576 mmHg 77%
    08:00 +9°C° 0 mm 1 mps 576 mmHg 66%
    09:00 +11°C° 0 mm 1 mps 577 mmHg 55%
    10:00 +12°C° 0 mm 1 mps 578 mmHg 45%
    11:00 +13°C° 0 mm 2 mps 578 mmHg 43%
    12:00 +13°C° 0 mm 2 mps 578 mmHg 41%
    13:00 +14°C° 0 mm 2 mps 578 mmHg 39%
    14:00 +14°C° 0.3 mm 2 mps 577 mmHg 43%
    15:00 +13°C° 0.3 mm 2 mps 576 mmHg 47%
    16:00 +13°C° 0.3 mm 2 mps 576 mmHg 51%
    17:00 +12°C° 0.4 mm 2 mps 575 mmHg 58%
    18:00 +10°C° 0.4 mm 1 mps 575 mmHg 66%
    19:00 +9°C° 0.4 mm 1 mps 574 mmHg 74%
    20:00 +8°C° 0.1 mm 1 mps 573 mmHg 79%
    21:00 +6°C° 0.1 mm 1 mps 572 mmHg 84%
    22:00 +4°C° 0.1 mm 1 mps 571 mmHg 89%
    23:00 +4°C° 0 mm 1 mps 571 mmHg 89%

    3 June, Wednesday

    Time Temperature Precipitation Wind Pressure Humidity
    00:00 +4°C° 0 mm 1 mps 571 mmHg 90%
    01:00 +4°C° 0 mm 1 mps 570 mmHg 90%
    02:00 +4°C° 0 mm 1 mps 570 mmHg 91%
    03:00 +3°C° 0 mm 1 mps 570 mmHg 91%
    04:00 +3°C° 0 mm 1 mps 569 mmHg 92%
    05:00 +4°C° 0 mm 1 mps 570 mmHg 88%
    06:00 +6°C° 0 mm 1 mps 570 mmHg 85%
    07:00 +7°C° 0 mm 1 mps 571 mmHg 82%
    08:00 +8°C° 0.4 mm 1 mps 571 mmHg 78%
    09:00 +9°C° 0.4 mm 1 mps 572 mmHg 73%
    10:00 +9°C° 0.4 mm 1 mps 572 mmHg 69%
    11:00 +10°C° 0.6 mm 1 mps 572 mmHg 68%
    12:00 +10°C° 0.6 mm 1 mps 572 mmHg 66%
    13:00 +10°C° 0.6 mm 1 mps 572 mmHg 65%
    14:00 +10°C° 0.8 mm 1 mps 572 mmHg 67%
    15:00 +9°C° 0.8 mm 1 mps 572 mmHg 70%
    16:00 +9°C° 0.8 mm 1 mps 571 mmHg 72%
    17:00 +9°C° 0.6 mm 1 mps 571 mmHg 75%
    18:00 +8°C° 0.6 mm 1 mps 571 mmHg 77%
    19:00 +8°C° 0.6 mm 1 mps 571 mmHg 80%
    20:00 +5°C° 0 mm 0 mps 571 mmHg 84%
    21:00 +3°C° 0 mm 0 mps 570 mmHg 88%
    22:00 +2°C° 0 mm 0 mps 570 mmHg 92%
    23:00 +1°C° 0 mm 0 mps 569 mmHg 92%

    4 June, Thursday

    Time Temperature Precipitation Wind Pressure Humidity
    00:00 +1°C° 0 mm 0 mps 569 mmHg 92%
    01:00 +1°C° 0 mm 0 mps 569 mmHg 92%
    02:00 0°C° 0 mm 0 mps 569 mmHg 91%
    03:00 0°C° 0 mm 0 mps 569 mmHg 91%
    04:00 0°C° 0 mm 0 mps 569 mmHg 90%
    05:00 +2°C° 0 mm 0 mps 570 mmHg 84%
    06:00 +4°C° 0 mm 0 mps 571 mmHg 78%
    07:00 +6°C° 0 mm 0 mps 572 mmHg 71%
    08:00 +9°C° 0 mm 1 mps 573 mmHg 62%
    09:00 +11°C° 0 mm 1 mps 574 mmHg 52%
    10:00 +12°C° 0 mm 1 mps 574 mmHg 43%
    11:00 +13°C° 0 mm 1 mps 575 mmHg 40%
    12:00 +14°C° 0 mm 1 mps 575 mmHg 37%
    13:00 +15°C° 0 mm 1 mps 575 mmHg 33%
    14:00 +15°C° 0.1 mm 1 mps 575 mmHg 36%
    15:00 +15°C° 0.1 mm 2 mps 575 mmHg 38%
    16:00 +14°C° 0.1 mm 2 mps 575 mmHg 41%
    17:00 +13°C° 0.4 mm 2 mps 574 mmHg 53%
    18:00 +12°C° 0.4 mm 1 mps 573 mmHg 65%
    19:00 +10°C° 0.4 mm 1 mps 573 mmHg 77%
    20:00 +9°C° 0.2 mm 1 mps 572 mmHg 81%
    21:00 +8°C° 0.2 mm 1 mps 572 mmHg 84%
    22:00 +7°C° 0.2 mm 1 mps 572 mmHg 87%
    23:00 +6°C° 0 mm 2 mps 571 mmHg 88%
    Show more